Powrót do katalogu

HIMAWARI 1 AKM

AktywnyMEO
NORAD 59985·ROCKET BODY·🇯🇵 Japan

Wystrzelony Jul 14, 1977 z Cape Canaveral Space Force Station

Loading…

Następne Przeloty (najbliższe 24 godziny)

TLE

ŚwieżeSource: Space-Track

Epoka: Sep 14, 2026, 00:41 UTC

1 59985U 77065GQ  26257.02872000 -.00000320  00000-0  00000+0 0  9997
2 59985   3.9806 272.0562 0275278 126.3519 235.8973  1.01125675 47349

Śledź HIMAWARI 1 AKM w czasie rzeczywistym z AllMySat

Download on the App Store